Location: Newark
(48.3983°N, 16.0611°E)
Time: 11:21:26
(UTC+00:00)

ISS - Pass Details

Date: 31 January 2020
Orbit: 415 x 423 km, 51.6° (Epoch: 27 February)

Event Time Altitude Azimuth Distance (km) Brightness Sun altitude
Rises 16:39:06 0° 277° (W) 2,381 1.5 -8.1°
Reaches altitude 10° 16:41:16 10° 284° (WNW) 1,515 0.1 -8.4°
Maximum altitude 16:44:34 46° 359° (N) 580 -3.2 -9.0°
Enters shadow 16:47:20 14° 71° (ENE) 1,311 -1.9 -9.4°
